Location: Key Biscayne
(25.6930°N, 80.1630°W)
Time: 21:53:09
(UTC-05:00)

Vanguard 3 - Visible Passes

Search period start: 22 February 2018 00:00
Search period end: 04 March 2018 00:00
Orbit: 508 x 3264 km, 33.3° (Epoch: 22 February)

Date Brightness Start Highest point End Pass type
(mag) Time Alt. Az. Time Alt. Az. Time Alt. Az.
22 Feb 6.5 19:18:46 10° WNW 19:22:24 59° NNE 19:24:32 27° E visible
23 Feb 7.4 20:16:40 10° WNW 20:19:45 47° WSW 20:19:45 47° WSW visible
24 Feb 6.2 19:03:25 10° WNW 19:07:04 75° NNE 19:10:24 16° ESE visible
25 Feb 7.5 20:01:35 10° W 20:05:03 36° SSW 20:05:41 34° S visible
26 Feb 6.2 18:48:02 10° WNW 18:51:45 82° SSW 18:55:45 10° ESE visible
27 Feb 8.1 19:46:34 10° W 19:49:40 25° SSW 19:51:48 17° SSE visible
01 Mar 8.7 19:31:44 10° WSW 19:34:15 17° SSW 19:36:57 10° SSE visible
03 Mar 9.0 19:17:24 10° SW 19:18:44 12° SW 19:20:06 10° SSW visible
